Flag for U.S.A. Weather past 2 weeks in Binghamton, New York, U.S.A.

Now
56 °F

Overcast.


Feels Like: 54 °F
Forecast: 53 / 66 °F
Wind: 9 mph from North

Location: Binghamton Regional Airport

Current Time: Jun 2, 2015 at 5:45:40 PM

Latest Report: Jun 2, 2015 at 4:53 PM


Visibility: 10 mi

Pressure: 30.14 "Hg

Humidity: 77%

Dew point: 49 °F

Location of BinghamtonLocation

Historic Weather in Binghamton — Graph

°F

Binghamton temperature yesterday

Maximum temperature yesterday: 57 °F (at 2:53 AM)
Minimum temperature yesterday: 51 °F (at 10:53 PM)
Average temperature yesterday: 54 °F

Past Weeks' High & Low Weather Summary

 TemperatureHumidityPressure
High81 °F (May 25, 2:53 PM)100% (May 18, 6:58 PM)30.44 "Hg (May 18, 6:58 PM)
Low32 °F (May 23, 5:53 AM)23% (May 24, 3:53 PM)29.79 "Hg (May 19, 3:53 PM)
Average60 °F71%30.10 "Hg
* Reported May 18 3:53 PM — Jun 2 3:53 PM, Binghamton, Weather by CustomWeather, © 2015

Note: Actual official high and low records may vary slightly from our data, if they occured in-between our weather recording intervals... More about our weather records

Advertising

Binghamton weather history for previous 24 hours

 ConditionsComfort  
Time TempWeatherWind HumidityBarometerVisibility
3:53 PM
Tue, Jun 2
56 °FOvercast.9 mph77%30.15 "Hg10 mi
2:53 PM56 °FOvercast.7 mph77%30.16 "Hg10 mi
1:53 PM56 °FOvercast.6 mph81%30.16 "Hg10 mi
12:53 PM56 °FMostly cloudy.12 mph81%30.16 "Hg10 mi
11:56 AM54 °FMore clouds than sun.10 mph86%30.16 "Hg10 mi
10:53 AM53 °FFog.8 mph93%30.16 "Hg5 mi
9:53 AM53 °FFog.10 mph93%30.15 "Hg5 mi
8:53 AM51 °FFog.8 mph96%30.14 "Hg1 mi
7:53 AM50 °FFog.7 mph100%30.13 "Hg1 mi
7:03 AM50 °FFog.10 mph100%30.11 "Hg1 mi
6:53 AM50 °FFog.8 mph100%30.11 "Hg1 mi
6:04 AM50 °FFog.5 mph100%30.10 "Hg1 mi
5:53 AM50 °FFog.6 mph100%30.11 "Hg2 mi
5:01 AM50 °FFog.5 mph100%30.10 "Hg1 mi
4:00 AM50 °FFog.5 mph100%30.11 "Hg1 mi
2:53 AM50 °FFog.6 mph100%30.12 "Hg1 mi
1:53 AM51 °FFog.5 mph100%30.11 "Hg0 mi
12:53 AM51 °FFog.5 mph100%30.11 "Hg1 mi
10:53 PM
Mon, Jun 1
51 °FFog.9 mph100%30.13 "Hg3 mi
9:53 PM52 °FFog.6 mph97%30.13 "Hg1 mi
8:53 PM52 °FFog.6 mph100%30.12 "Hg2 mi
7:53 PM53 °FFog.6 mph100%30.12 "Hg2 mi
6:53 PM53 °FFog.6 mph96%30.11 "Hg2 mi
6:01 PM53 °FLight rain. Fog.8 mph96%30.09 "Hg2 mi
Weather by CustomWeather, © 2015

See weather overviewHow to use our weather pages